Location: Chagrin Falls Park
(41.4139°N, 81.3865°W)
Time: 23:17:16
(UTC+00:00)

STARLINK-2736 - Pass Details

Date: 31 July 2021
Orbit: 546 x 548 km, 53.1° (Epoch: 20 September)

Event Time Altitude Azimuth Distance (km) Brightness Sun altitude
Rises 01:46:06 0° 304° (NW) 2,774 9.5 -10.7°
Reaches altitude 10° 01:48:24 10° 300° (WNW) 1,871 7.9 -11.1°
Maximum altitude 01:52:33 52° 224° (SW) 703 4.2 -11.7°
Enters shadow 01:55:43 16° 151° (SSE) 1,495 5.3 -12.2°
